[[{"header":{"parameterUnit":"m.s-1","parameterCategory":2,"la1":30.2991,"la2":30.254,"lo1":-89.0895,"lo2":-89.0444,"dy":0.0017,"dx":0.0017,"nx":28,"ny":28,"refTime":"2024-11-25T03:00:00:Z","depth":"0","parameterNumber":2,"parameterNumberName":"U-component_of_CURRENTS"},"data":[0,0,0,0,0,0,0,0,0,0,0,0,0,0,0,0,0,0,0,0,0,0,0,0,0,0,0,0,0,0,0,0,0,0,0,0,0,0,0,0,0,0,0,0,0,0,0,0,0,0,0,0,0,0,0,0,0,0,0.2039,0.2039,0,0.2025,0.2024,0.2024,0.1949,0.1948,0.1946,0.1945,0.1909,0.1909,0.191,0,0,0,0,0,0,0,0,0,0,0,0,0,0.2007,0.2008,0.2039,0.2039,0.2039,0.2025,0.2024,0.2024,0.1949,0.1947,0.1946,0.1944,0.1909,0.1909,0.191,0,0,0,0,0,0,0,0,0,0,0,0,0,0.2006,0.2008,0.2039,0.2003,0.2,0.2025,0.2024,0.2024,0.195,0.1947,0.1945,0.1943,0.1909,0.1909,0.191,0.1957,0,0,0.1912,0.1912,0,0,0,0,0,0,0,0,0.2006,0.2007,0.2008,0.2006,0.2002,0.199,0.2,0.2002,0.195,0.1965,0.1945,0.1942,0.1938,0.1936,0.1933,0.1955,0.1954,0.1912,0.1912,0.1912,0.1912,0,0,0,0,0,0,0,0.2007,0.2007,0.203,0.2009,0.2005,0.199,0.1987,0.2,0.1961,0.1963,0.1959,0.1964,0.1935,0.1933,0.1932,0.1953,0.1912,0.1912,0.1912,0.1913,0.2028,0.2031,0,0,0,0,0,0,0.2018,0.2008,0.203,0.203,0.2003,0.1993,0.1989,0.1993,0.1961,0.1955,0.1966,0.1961,0.1933,0.1931,0.193,0.2002,0.1912,0.1913,0.1913,0.2026,0.2029,0.2032,0,0,0,0,0,0,0.2018,0.202,0.2031,0.2021,0.2022,0.1996,0.2001,0.1994,0.1992,0.1963,0.1956,0.1971,0.1931,0.1929,0.1944,0.1999,0.1913,0.1914,0.2022,0.2027,0.203,0.2133,0,0,0,0,0,0,0.2017,0.202,0.2035,0.2022,0.2023,0.2062,0.2003,0.1995,0.2,0.1993,0.1966,0.196,0.1929,0.1943,0.1945,0.1998,0.1914,0.2019,0.2024,0.2029,0.2127,0.2141,0.2152,0,0,0,0,0,0.2016,0.2048,0.2035,0.2039,0.2041,0.2064,0.2064,0.2034,0.2003,0.202,0.1991,0.196,0.1977,0.1946,0.1947,0.2002,0.2017,0.2023,0.2029,0.2121,0.2138,0.2152,0,0,0,0,0,0,0.2043,0.2043,0.2029,0.2059,0.2068,0.2053,0.207,0.2049,0.2041,0.203,0.1988,0.1982,0.2019,0.2001,0.1968,0.2052,0.1997,0.2003,0.2066,0.2082,0.2095,0.2145,0.1915,0,0,0,0,0,0.2059,0.2074,0.2078,0.21,0.2111,0.2093,0.21,0.2084,0.2074,0.2066,0.2041,0.2032,0.205,0.2054,0.2059,0.2104,0.2124,0.2144,0.2157,0.2168,0.2212,0.2275,0.2297,0.2052,0.2052,0.2052,0,0,0.2069,0.2077,0.2082,0.2107,0.2107,0.2132,0.2091,0.2113,0.2129,0.2068,0.208,0.2075,0.2072,0.2115,0.2133,0.2104,0.225,0.2176,0.2185,0.2224,0.2284,0.2307,0.2329,0.2056,0.2055,0.2055,0,0,0.21,0.2114,0.2134,0.2154,0.2173,0.2173,0.2185,0.2181,0.2178,0.2204,0.2167,0.221,0.2204,0.2231,0.2242,0.2341,0.2315,0.2325,0.2433,0.2493,0.2514,0.2532,0.2591,0.2614,0.2332,0.2333,0.2333,0,0.2109,0.2137,0.2147,0.2179,0.2192,0.2195,0.2219,0.2239,0.2235,0.2247,0.2222,0.2268,0.2279,0.2351,0.2399,0.2377,0.2389,0.2367,0.251,0.2529,0.2547,0.2602,0.2626,0.2338,0.2338,0.2337,0.2337,0,0.2149,0.2178,0.22,0.2231,0.2255,0.2287,0.2311,0.2335,0.2335,0.2347,0.241,0.2432,0.2457,0.2483,0.2483,0.2609,0.2572,0.2515,0.247,0.2578,0.2629,0.2652,0.2347,0.2344,0.2343,0.2341,0,0,0.2135,0.2208,0.2213,0.2229,0.2283,0.2299,0.2359,0.2406,0.2428,0.2477,0.2511,0.2621,0.2627,0.2647,0.2646,0.2738,0.2898,0.2697,0.2697,0.2755,0.3026,0.2945,0.2962,0.2843,0.2848,0.2852,0.3013,0,0.2152,0.2211,0.2245,0.2292,0.232,0.2355,0.2398,0.2447,0.2481,0.252,0.2607,0.2638,0.2684,0.2688,0.2805,0.2848,0.2964,0.2861,0.2915,0.2918,0.2832,0.2989,0.2927,0.306,0.3035,0.3039,0.3042,0,0.2165,0.2205,0.2251,0.2307,0.232,0.2347,0.2399,0.2439,0.2525,0.255,0.2635,0.2662,0.282,0.2815,0.3033,0.2948,0.3035,0.309,0.3094,0.3007,0.2882,0.2948,0.3102,0.3021,0.3077,0.3075,0.3072,0,0.2126,0.2201,0.223,0.2253,0.2324,0.2341,0.2371,0.2442,0.2468,0.2554,0.2574,0.2731,0.2781,0.2939,0.3078,0.3054,0.3287,0.3239,0.3266,0.3259,0.322,0.3201,0.3307,0.3436,0.3436,0.3435,0.3435,0,0.2122,0.2147,0.221,0.2227,0.2253,0.2303,0.2327,0.2378,0.2438,0.2477,0.2575,0.2628,0.2817,0.2947,0.3094,0.3253,0.33,0.3348,0.3318,0.3251,0.3234,0.3165,0.3131,0.3441,0.344,0.3439,0.3438,0,0.2079,0.2123,0.2158,0.2221,0.2233,0.2244,0.2284,0.2308,0.2361,0.2408,0.2432,0.2573,0.2744,0.2918,0.3152,0.324,0.3325,0.3443,0.3351,0.3308,0.3238,0.3211,0.313,0.3093,0.3526,0.3526,0.3525,0,0.2076,0.2087,0.2134,0.2144,0.2169,0.2189,0.2206,0.2261,0.2282,0.2377,0.24,0.2551,0.2667,0.2956,0.3153,0.3382,0.33,0.3417,0.339,0.3283,0.3233,0.3023,0.2984,0.3391,0.3389,0.3388,0.3387,0,0.2075,0.2076,0.2104,0.2114,0.2125,0.2132,0.2155,0.2158,0.2225,0.2263,0.2341,0.2431,0.2698,0.2888,0.3136,0.3282,0.3245,0.3393,0.3326,0.3204,0.2945,0.2874,0.3223,0.3375,0.3376,0.3377,0.3378,0.3378,0.2079,0.2082,0.2104,0.2103,0.21,0.2082,0.2069,0.2097,0.2116,0.2166,0.2273,0.2373,0.2638,0.299,0.3101,0.3223,0.3182,0.3217,0.322,0.3033,0.292,0.3236,0.3299,0.33,0.33,0.3301,0.3301,0,0.211,0.2107,0.2101,0.209,0.2048,0.2056,0.2045,0.2023,0.2028,0.2105,0.217,0.2356,0.2583,0.2807,0.3064,0.306,0.2961,0.3011,0.2758,0.276,0.3114,0.3029,0.2981,0.2981,0.2981,0.2981,0.2981,0.2981,0.214,0.2137,0.2115,0.2052,0.2019,0.1959,0.1938,0.1913,0.1943,0.1973,0.2028,0.2109,0.235,0.2681,0.2829,0.284,0.2704,0.2567,0.257,0.2877,0.2895,0.2913,0.2825,0.2735,0.2735,0.2109,0.2105,0.2102]},{"header":{"parameterUnit":"m.s-1","parameterCategory":2,"la1":30.2991,"la2":30.254,"lo1":-89.0895,"lo2":-89.0444,"dy":0.0017,"dx":0.0017,"nx":28,"ny":28,"refTime":"2024-11-25T03:00:00:Z","depth":"0","parameterNumber":3,"parameterNumberName":"V-component_of_CURRENTS"},"data":[0,0,0,0,0,0,0,0,0,0,0,0,0,0,0,0,0,0,0,0,0,0,0,0,0,0,0,0,0,0,0,0,0,0,0,0,0,0,0,0,0,0,0,0,0,0,0,0,0,0,0,0,0,0,0,0,0,0,0.0605,0.0603,0,0.0491,0.049,0.0488,0.0408,0.0408,0.0407,0.0407,0.0304,0.0301,0.0299,0,0,0,0,0,0,0,0,0,0,0,0,0,0.0752,0.075,0.0605,0.0603,0.0602,0.0491,0.049,0.0488,0.0408,0.0408,0.0407,0.0406,0.0304,0.0302,0.0299,0,0,0,0,0,0,0,0,0,0,0,0,0,0.0668,0.0749,0.0605,0.0549,0.0543,0.0492,0.049,0.0488,0.0409,0.0408,0.0407,0.0406,0.0305,0.0302,0.0299,0.0296,0,0,0.0289,0.0287,0,0,0,0,0,0,0,0,0.0673,0.0663,0.0559,0.0553,0.0546,0.0463,0.0504,0.0424,0.0409,0.0459,0.0407,0.0406,0.0359,0.0351,0.0331,0.0292,0.0287,0.0288,0.0286,0.0285,0.0284,0,0,0,0,0,0,0,0.0679,0.0667,0.0559,0.0557,0.055,0.053,0.0517,0.0488,0.0415,0.0455,0.0449,0.0437,0.0355,0.0334,0.0328,0.0286,0.0288,0.0286,0.0284,0.0282,0.0243,0.0244,0,0,0,0,0,0,0.0694,0.0673,0.0563,0.0556,0.0609,0.0528,0.0513,0.049,0.0415,0.0403,0.0438,0.0434,0.034,0.0332,0.0324,0.0344,0.0285,0.0282,0.028,0.0242,0.0243,0.0244,0,0,0,0,0,0,0.0698,0.0685,0.0567,0.0613,0.0596,0.0526,0.0501,0.0489,0.0467,0.0402,0.039,0.0429,0.0339,0.0329,0.0289,0.0338,0.028,0.0277,0.0241,0.0242,0.0244,0.0366,0,0,0,0,0,0,0.0702,0.0687,0.0678,0.0613,0.0594,0.0547,0.0502,0.0487,0.0461,0.0454,0.0391,0.038,0.0338,0.0294,0.0286,0.0332,0.0275,0.024,0.0242,0.0243,0.036,0.0371,0.038,0,0,0,0,0,0.0708,0.0689,0.0678,0.0664,0.0583,0.0548,0.0537,0.0484,0.0462,0.046,0.0405,0.0382,0.0301,0.0292,0.0282,0.0329,0.0239,0.0241,0.0243,0.0356,0.0369,0.038,0,0,0,0,0,0,0.0725,0.0678,0.0663,0.0625,0.06,0.0535,0.052,0.0493,0.0448,0.0438,0.0379,0.0365,0.0359,0.0316,0.0308,0.0321,0.0273,0.0273,0.0362,0.0374,0.0383,0.0423,0.0272,0,0,0,0,0,0.0734,0.0716,0.0673,0.0642,0.0635,0.0585,0.0564,0.0535,0.0486,0.0465,0.0422,0.0379,0.0361,0.0343,0.0315,0.0309,0.0298,0.0335,0.0345,0.0354,0.0379,0.0403,0.0418,0.0251,0.0251,0.0251,0,0,0.0725,0.0701,0.0686,0.0648,0.0621,0.0603,0.057,0.0545,0.0534,0.0463,0.0434,0.0413,0.0367,0.0366,0.0361,0.0334,0.0391,0.0357,0.0365,0.0385,0.0407,0.0424,0.0439,0.0252,0.0252,0.0252,0,0,0.0704,0.0691,0.0672,0.0663,0.0638,0.0618,0.0619,0.0573,0.0562,0.0535,0.0498,0.051,0.0443,0.0448,0.0435,0.0483,0.0447,0.0466,0.0545,0.0569,0.0584,0.0597,0.0593,0.0605,0.0467,0.0467,0.0467,0,0.0695,0.067,0.0662,0.065,0.0646,0.063,0.0619,0.0608,0.0556,0.0574,0.0538,0.053,0.0496,0.0536,0.055,0.0515,0.0498,0.0507,0.0586,0.0598,0.061,0.0603,0.0614,0.0473,0.0473,0.0472,0.0471,0,0.066,0.0653,0.0646,0.0634,0.0633,0.0626,0.0622,0.0633,0.0627,0.0628,0.0673,0.0645,0.0649,0.0651,0.0607,0.0685,0.0637,0.0603,0.0565,0.0635,0.0621,0.0631,0.0482,0.048,0.0478,0.0476,0,0,0.0615,0.062,0.062,0.0638,0.0634,0.0636,0.065,0.068,0.0723,0.0718,0.0778,0.0784,0.0806,0.0795,0.0777,0.0803,0.0866,0.0737,0.0735,0.0749,0.0894,0.0845,0.0849,0.0837,0.084,0.0842,0.0849,0,0.0594,0.059,0.0593,0.0608,0.0621,0.0644,0.067,0.0707,0.0741,0.08,0.0844,0.088,0.0848,0.0869,0.09,0.0879,0.0898,0.0866,0.081,0.0809,0.0771,0.0863,0.0865,0.0871,0.0858,0.086,0.0861,0,0.0575,0.0581,0.0586,0.0647,0.0655,0.0662,0.0752,0.0772,0.0864,0.0897,0.0972,0.0991,0.1062,0.1008,0.1045,0.1018,0.0971,0.0948,0.0947,0.0872,0.078,0.0799,0.0888,0.075,0.0875,0.0874,0.0873,0,0.0589,0.0598,0.0614,0.0624,0.0666,0.0695,0.0726,0.081,0.0863,0.0968,0.1022,0.1104,0.114,0.1134,0.1096,0.1065,0.1113,0.1058,0.0973,0.0967,0.0947,0.0936,0.0917,0.108,0.108,0.108,0.108,0,0.0596,0.0618,0.0626,0.0639,0.0689,0.0717,0.0795,0.0847,0.0941,0.1028,0.1077,0.1161,0.117,0.1195,0.1143,0.1104,0.1149,0.1021,0.0986,0.0985,0.0977,0.0834,0.0755,0.108,0.108,0.108,0.108,0,0.0624,0.0621,0.065,0.0681,0.0697,0.0737,0.0812,0.0884,0.0959,0.1073,0.1106,0.1209,0.1253,0.1241,0.1232,0.1157,0.1053,0.1079,0.1066,0.1031,0.0814,0.0742,0.0731,0.0662,0.1005,0.1004,0.1003,0,0.0645,0.0653,0.0672,0.0691,0.0703,0.0759,0.081,0.0886,0.0958,0.1107,0.1167,0.1249,0.1344,0.1323,0.1223,0.1149,0.1029,0.104,0.0996,0.0835,0.073,0.0706,0.0646,0.1008,0.1008,0.1007,0.1007,0,0.0684,0.0678,0.0693,0.0721,0.0759,0.0813,0.0883,0.0938,0.1045,0.1145,0.1286,0.138,0.1385,0.1363,0.124,0.1157,0.095,0.1023,0.0883,0.077,0.0721,0.0625,0.094,0.1002,0.1003,0.1003,0.1003,0.1004,0.0717,0.073,0.0739,0.0774,0.0807,0.0872,0.0942,0.1027,0.1146,0.1335,0.1385,0.1581,0.1515,0.1387,0.1201,0.0882,0.0896,0.0778,0.0715,0.0714,0.0628,0.0917,0.0916,0.0916,0.0916,0.0916,0.0916,0,0.078,0.0786,0.0804,0.0844,0.0888,0.0901,0.1005,0.1104,0.1255,0.1447,0.1601,0.1773,0.1562,0.1346,0.0938,0.0651,0.056,0.0488,0.0458,0.0417,0.0703,0.0679,0.0596,0.0596,0.0596,0.0596,0.0596,0.0596,0.0819,0.0852,0.0852,0.0922,0.0948,0.1051,0.1122,0.127,0.1434,0.1739,0.1955,0.212,0.2048,0.1188,0.0595,0.0408,0.0192,0.0155,0.0044,0.022,0.0242,0.0264,0.0224,0.0046,0.0046,-0.0197,-0.02,-0.0202]}],[{"header":{"parameterUnit":"m.s-1","parameterCategory":2,"la1":30.2991,"la2":30.254,"lo1":-89.0895,"lo2":-89.0444,"dy":0.0017,"dx":0.0017,"nx":28,"ny":28,"refTime":"2024-11-25T03:00:00:Z","depth":"2","parameterNumber":2,"parameterNumberName":"U-component_of_CURRENTS"},"data":[0,0,0,0,0,0,0,0,0,0,0,0,0,0,0,0,0,0,0,0,0,0,0,0,0,0,0,0,0,0,0,0,0,0,0,0,0,0,0,0,0,0,0,0,0,0,0,0,0,0,0,0,0,0,0,0,0,0,0.0108,0.0108,0,0.0107,0.0107,0.0106,0.018,0.0182,0.0185,0.0187,0.0278,0.0278,0.0278,0,0,0,0,0,0,0,0,0,0,0,0,0,0.0137,0.0136,0.0108,0.0108,0.0108,0.0107,0.0107,0.0106,0.018,0.0183,0.0185,0.0188,0.0277,0.0278,0.0279,0,0,0,0,0,0,0,0,0,0,0,0,0,0.0127,0.0136,0.0108,0.0146,0.015,0.0107,0.0107,0.0106,0.0179,0.0183,0.0186,0.0189,0.0277,0.0278,0.0279,0.0219,0,0,0.0281,0.0281,0,0,0,0,0,0,0,0,0.0128,0.0126,0.014,0.0143,0.0147,0.0149,0.015,0.0149,0.0179,0.0166,0.0187,0.019,0.0242,0.0246,0.0234,0.0223,0.0227,0.0281,0.0281,0.0281,0.0282,0,0,0,0,0,0,0,0.0128,0.0126,0.0106,0.014,0.0144,0.0151,0.0153,0.015,0.0186,0.0167,0.0173,0.0175,0.0245,0.0233,0.0237,0.0228,0.0281,0.0281,0.0282,0.0282,0.036,0.0361,0,0,0,0,0,0,0.013,0.0126,0.0106,0.0106,0.0147,0.0148,0.015,0.0143,0.0185,0.0194,0.0172,0.0178,0.0231,0.0236,0.0241,0.034,0.0281,0.0282,0.0282,0.0358,0.036,0.0362,0,0,0,0,0,0,0.0131,0.0128,0.0106,0.0119,0.0117,0.0145,0.0136,0.0142,0.0167,0.0188,0.0199,0.0196,0.0233,0.024,0.0277,0.0338,0.0282,0.0283,0.0356,0.0359,0.0361,0.0431,0,0,0,0,0,0,0.0131,0.0128,0.0127,0.0118,0.0116,0.0108,0.0133,0.014,0.0161,0.0171,0.021,0.022,0.0236,0.0276,0.0278,0.0338,0.0283,0.0354,0.0357,0.036,0.0427,0.0436,0.0443,0,0,0,0,0,0.0132,0.0124,0.0127,0.0125,0.0113,0.0109,0.0108,0.0138,0.016,0.0171,0.0206,0.0221,0.0299,0.0276,0.0278,0.0341,0.0352,0.0356,0.036,0.0423,0.0434,0.0443,0,0,0,0,0,0,0.0145,0.013,0.0134,0.0124,0.0128,0.0123,0.0136,0.0145,0.0173,0.0202,0.0218,0.023,0.0291,0.0292,0.0267,0.0373,0.0337,0.0341,0.0384,0.0394,0.0402,0.0392,0.0284,0,0,0,0,0,0.0141,0.0133,0.0124,0.0122,0.0125,0.013,0.0134,0.0156,0.0175,0.0192,0.0223,0.0263,0.0296,0.0327,0.0349,0.0386,0.0377,0.0435,0.0443,0.045,0.0444,0.046,0.0469,0.0374,0.0374,0.0374,0,0,0.0146,0.0139,0.0135,0.0124,0.0132,0.0134,0.0142,0.0166,0.0187,0.0195,0.0252,0.0284,0.0308,0.0369,0.0398,0.0387,0.0479,0.0455,0.0461,0.0451,0.0465,0.0474,0.0482,0.0377,0.0376,0.0376,0,0,0.0142,0.0148,0.0134,0.0139,0.0154,0.016,0.0172,0.0189,0.0224,0.0262,0.029,0.0344,0.0394,0.0427,0.0446,0.0502,0.0513,0.054,0.0586,0.0602,0.061,0.0616,0.064,0.0648,0.0556,0.0556,0.0556,0,0.0151,0.0132,0.0133,0.0129,0.0147,0.0174,0.0182,0.0204,0.0241,0.0278,0.0303,0.0394,0.0416,0.048,0.0522,0.0521,0.054,0.0547,0.0612,0.0618,0.0623,0.0646,0.0654,0.056,0.0559,0.0559,0.0558,0,0.0122,0.013,0.0133,0.0136,0.0153,0.0175,0.0206,0.0251,0.0306,0.0336,0.0427,0.0459,0.0523,0.0552,0.0559,0.0628,0.0633,0.0611,0.0584,0.0637,0.0658,0.0665,0.0565,0.0564,0.0563,0.0562,0,0,0.0092,0.0107,0.0112,0.0139,0.017,0.019,0.0239,0.0291,0.0352,0.0413,0.0487,0.0554,0.06,0.0622,0.0652,0.0675,0.0739,0.0679,0.0678,0.0698,0.08,0.0792,0.0798,0.0743,0.0744,0.0745,0.0808,0,0.0077,0.0085,0.0091,0.0136,0.0158,0.0212,0.0258,0.0322,0.0396,0.048,0.0537,0.0619,0.0619,0.0685,0.0706,0.0735,0.0758,0.0725,0.0749,0.0749,0.0731,0.0805,0.0716,0.0763,0.0815,0.0816,0.0816,0,0.0046,0.0064,0.0095,0.0174,0.0189,0.0225,0.0342,0.0385,0.0491,0.0556,0.0642,0.0694,0.0768,0.0749,0.0811,0.0803,0.0808,0.081,0.0812,0.0778,0.0753,0.0714,0.0773,0.0827,0.0826,0.0826,0.0825,0,0.005,0.008,0.0121,0.0142,0.0215,0.0268,0.0322,0.0425,0.0491,0.0618,0.0693,0.0772,0.0844,0.0854,0.0889,0.0867,0.0938,0.0896,0.0881,0.0881,0.0791,0.0781,0.0909,0.0909,0.0909,0.0909,0.0909,0,0.0048,0.009,0.0137,0.0168,0.0244,0.0295,0.0398,0.0469,0.0577,0.0661,0.0744,0.0826,0.0877,0.0932,0.0923,0.0949,0.0969,0.0902,0.0901,0.0817,0.0809,0.084,0.0831,0.0911,0.0911,0.091,0.091,0,0.0071,0.0091,0.0147,0.0221,0.0253,0.032,0.0432,0.0503,0.0609,0.0722,0.0771,0.0895,0.0984,0.1016,0.1052,0.1008,0.1012,0.1002,0.0913,0.0899,0.0932,0.0926,0.0992,0.0992,0.0992,0.0993,0.0993,0,0.0091,0.0116,0.0185,0.0222,0.0266,0.0358,0.0419,0.0521,0.0589,0.0755,0.0805,0.0944,0.1027,0.1097,0.1063,0.1059,0.1062,0.0953,0.0869,0.095,0.0942,0.0936,0.093,0.0788,0.0786,0.0785,0.0784,0,0.0128,0.0149,0.0189,0.0253,0.0318,0.0384,0.0477,0.0525,0.0644,0.0734,0.0862,0.0944,0.1039,0.1028,0.1039,0.0997,0.0948,0.0927,0.1049,0.078,0.0763,0.0753,0.0753,0.0773,0.0774,0.0775,0.0776,0.0776,0.0157,0.0183,0.0222,0.0288,0.0351,0.0413,0.046,0.0536,0.0627,0.0747,0.0833,0.0917,0.093,0.0916,0.0902,0.0878,0.0906,0.0827,0.0829,0.0832,0.0797,0.078,0.0788,0.079,0.0791,0.0791,0.0792,0,0.0183,0.0208,0.0257,0.0319,0.0374,0.0425,0.0498,0.0519,0.0594,0.0685,0.078,0.0724,0.075,0.0793,0.0737,0.0712,0.0674,0.0688,0.0635,0.0645,0.0655,0.0608,0.0552,0.0551,0.0551,0.0551,0,0,0.0194,0.0225,0.024,0.0322,0.0385,0.0447,0.0484,0.0505,0.054,0.0569,0.0608,0.0691,0.073,0.0621,0.0605,0.059,0.0608,0.0558,0.0744,0.069,0.0699,0.0722,0.0661,0,0,0,0,0]},{"header":{"parameterUnit":"m.s-1","parameterCategory":2,"la1":30.2991,"la2":30.254,"lo1":-89.0895,"lo2":-89.0444,"dy":0.0017,"dx":0.0017,"nx":28,"ny":28,"refTime":"2024-11-25T03:00:00:Z","depth":"2","parameterNumber":3,"parameterNumberName":"V-component_of_CURRENTS"},"data":[0,0,0,0,0,0,0,0,0,0,0,0,0,0,0,0,0,0,0,0,0,0,0,0,0,0,0,0,0,0,0,0,0,0,0,0,0,0,0,0,0,0,0,0,0,0,0,0,0,0,0,0,0,0,0,0,0,0,-0.0512,-0.0512,0,-0.0552,-0.0552,-0.0552,-0.0565,-0.0565,-0.0565,-0.0565,-0.0622,-0.0623,-0.0624,0,0,0,0,0,0,0,0,0,0,0,0,0,-0.0413,-0.0415,-0.0512,-0.0512,-0.0513,-0.0552,-0.0552,-0.0552,-0.0565,-0.0565,-0.0565,-0.0565,-0.0621,-0.0623,-0.0624,0,0,0,0,0,0,0,0,0,0,0,0,0,-0.0452,-0.0415,-0.0511,-0.0527,-0.0529,-0.0552,-0.0552,-0.0552,-0.0565,-0.0565,-0.0565,-0.0565,-0.0621,-0.0623,-0.0625,-0.0633,0,0,-0.0631,-0.0632,0,0,0,0,0,0,0,0,-0.045,-0.0455,-0.0524,-0.0526,-0.0528,-0.0557,-0.0538,-0.0582,-0.0565,-0.0547,-0.0565,-0.0565,-0.0604,-0.0607,-0.0609,-0.0636,-0.0639,-0.0631,-0.0632,-0.0633,-0.0634,0,0,0,0,0,0,0,-0.0447,-0.0453,-0.0524,-0.0525,-0.0527,-0.0521,-0.0527,-0.0546,-0.0571,-0.0549,-0.0551,-0.0561,-0.0604,-0.0607,-0.061,-0.0639,-0.0631,-0.0633,-0.0634,-0.0635,-0.0695,-0.0696,0,0,0,0,0,0,-0.0451,-0.0451,-0.0523,-0.0526,-0.0493,-0.0523,-0.0529,-0.0544,-0.0571,-0.0576,-0.0561,-0.0561,-0.0603,-0.0608,-0.0613,-0.0623,-0.0633,-0.0635,-0.0636,-0.0695,-0.0695,-0.0696,0,0,0,0,0,0,-0.0449,-0.0457,-0.0521,-0.0491,-0.05,-0.0525,-0.0542,-0.0545,-0.0555,-0.058,-0.0585,-0.0568,-0.0604,-0.061,-0.0629,-0.0625,-0.0636,-0.0638,-0.0695,-0.0695,-0.0696,-0.0645,0,0,0,0,0,0,-0.0446,-0.0456,-0.0466,-0.0492,-0.0502,-0.0533,-0.0542,-0.0546,-0.0562,-0.0563,-0.0588,-0.0593,-0.0604,-0.0626,-0.0631,-0.0629,-0.064,-0.0694,-0.0695,-0.0695,-0.0646,-0.0644,-0.0642,0,0,0,0,0,-0.0442,-0.0449,-0.0466,-0.0475,-0.0515,-0.0533,-0.0536,-0.0552,-0.0562,-0.0562,-0.058,-0.0593,-0.0634,-0.0627,-0.0634,-0.0632,-0.0694,-0.0695,-0.0695,-0.0647,-0.0644,-0.0642,0,0,0,0,0,0,-0.0412,-0.0453,-0.0471,-0.0492,-0.0513,-0.0536,-0.0542,-0.0556,-0.0569,-0.0572,-0.0594,-0.06,-0.0615,-0.0636,-0.0628,-0.0654,-0.0668,-0.067,-0.0629,-0.0627,-0.0625,-0.061,-0.0641,0,0,0,0,0,-0.0412,-0.0432,-0.0465,-0.0485,-0.0494,-0.052,-0.053,-0.0542,-0.0561,-0.0567,-0.0585,-0.0608,-0.0622,-0.0634,-0.0651,-0.0666,-0.0676,-0.0672,-0.0669,-0.0667,-0.0661,-0.0684,-0.0682,-0.0699,-0.0699,-0.0698,0,0,-0.041,-0.0434,-0.0448,-0.048,-0.0498,-0.0501,-0.0526,-0.0541,-0.0541,-0.0572,-0.0577,-0.0599,-0.0625,-0.0634,-0.0644,-0.0652,-0.0665,-0.0668,-0.0666,-0.0661,-0.0684,-0.0683,-0.0681,-0.0699,-0.0699,-0.0699,0,0,-0.0397,-0.0434,-0.0436,-0.045,-0.0477,-0.0493,-0.0499,-0.0524,-0.0532,-0.0543,-0.0563,-0.0583,-0.061,-0.0622,-0.0633,-0.0634,-0.065,-0.0646,-0.0623,-0.0644,-0.0643,-0.0642,-0.0631,-0.0629,-0.0647,-0.0647,-0.0647,0,-0.039,-0.04,-0.0438,-0.0435,-0.0444,-0.0488,-0.0479,-0.0494,-0.0521,-0.0522,-0.054,-0.0575,-0.06,-0.0607,-0.0608,-0.0626,-0.0633,-0.0626,-0.0639,-0.0639,-0.0638,-0.0628,-0.0627,-0.0644,-0.0645,-0.0645,-0.0645,0,-0.0373,-0.0377,-0.0379,-0.0394,-0.0407,-0.0411,-0.0438,-0.0448,-0.047,-0.0482,-0.0498,-0.0533,-0.0551,-0.0569,-0.0588,-0.0599,-0.0601,-0.0629,-0.064,-0.0633,-0.0623,-0.0622,-0.0641,-0.0642,-0.0643,-0.0643,0,0,-0.0361,-0.0364,-0.0364,-0.0355,-0.0384,-0.0389,-0.0394,-0.0404,-0.0396,-0.0433,-0.0422,-0.0466,-0.049,-0.0505,-0.0538,-0.0565,-0.0565,-0.0595,-0.0597,-0.0571,-0.059,-0.0542,-0.0537,-0.0599,-0.0599,-0.06,-0.0575,0,-0.0333,-0.0307,-0.0323,-0.0303,-0.0291,-0.0327,-0.0324,-0.034,-0.0359,-0.0359,-0.0404,-0.0413,-0.0465,-0.0474,-0.0507,-0.0555,-0.0566,-0.0568,-0.0612,-0.0612,-0.0561,-0.0536,-0.0547,-0.0523,-0.0575,-0.0575,-0.0575,0,-0.0305,-0.0289,-0.0259,-0.0244,-0.0244,-0.0243,-0.0246,-0.0248,-0.0265,-0.0277,-0.0302,-0.0335,-0.0374,-0.0422,-0.0491,-0.0491,-0.0531,-0.057,-0.0571,-0.0544,-0.0564,-0.0545,-0.0521,-0.0574,-0.0574,-0.0574,-0.0574,0,-0.0266,-0.0244,-0.0216,-0.0215,-0.0209,-0.0203,-0.0209,-0.0222,-0.0211,-0.0229,-0.0218,-0.0274,-0.029,-0.0367,-0.0449,-0.0472,-0.0514,-0.0557,-0.0543,-0.0539,-0.0565,-0.0562,-0.0592,-0.0592,-0.0592,-0.0592,-0.0592,0,-0.0227,-0.0203,-0.0195,-0.0178,-0.0146,-0.0163,-0.0136,-0.0146,-0.0143,-0.0112,-0.0175,-0.0154,-0.0282,-0.032,-0.041,-0.046,-0.0483,-0.0521,-0.053,-0.0544,-0.0541,-0.0609,-0.0612,-0.0591,-0.0591,-0.0591,-0.0591,0,-0.0188,-0.0182,-0.0146,-0.013,-0.0124,-0.0106,-0.009,-0.0064,-0.0074,-0.0034,-0.0036,-0.0063,-0.0111,-0.0219,-0.0324,-0.0388,-0.046,-0.047,-0.0458,-0.0464,-0.0477,-0.0477,-0.0449,-0.0447,-0.0445,-0.0444,-0.0443,0,-0.0168,-0.0144,-0.0112,-0.0088,-0.008,-0.0056,-0.0033,-0.0035,0.0001,0.0034,0.007,0.0045,0.0053,-0.0065,-0.0211,-0.0332,-0.0383,-0.0397,-0.0447,-0.0451,-0.0462,-0.0465,-0.0468,-0.0458,-0.0458,-0.0457,-0.0456,0,-0.0127,-0.012,-0.0089,-0.0036,-0.0007,0.0036,0.0073,0.0115,0.0132,0.0174,0.0246,0.0257,0.0154,0.0031,-0.0132,-0.0222,-0.0385,-0.0381,-0.0403,-0.0483,-0.0455,-0.0468,-0.0471,-0.045,-0.045,-0.0451,-0.0451,-0.0451,-0.0106,-0.0076,-0.0035,0.0014,0.006,0.0131,0.018,0.024,0.0314,0.0394,0.0391,0.0394,0.0204,0.0002,-0.0128,-0.0274,-0.029,-0.0371,-0.0376,-0.0381,-0.0376,-0.0347,-0.0318,-0.0318,-0.0318,-0.0318,-0.0318,0,-0.0078,-0.0038,0.0015,0.0085,0.0152,0.0163,0.0258,0.0318,0.0429,0.047,0.0531,0.0356,0.0228,0.0035,-0.0174,-0.0288,-0.0329,-0.0321,-0.0378,-0.0384,-0.0389,-0.0388,-0.0331,-0.0331,-0.0331,-0.0331,0,0,-0.006,-0.0001,0.0032,0.0149,0.0204,0.0298,0.0359,0.0454,0.0496,0.055,0.0525,0.0481,0.0222,0.0057,-0.0121,-0.0219,-0.0265,-0.0231,-0.0214,-0.0268,-0.0271,-0.0419,-0.0422,0,0,0,0,0]}],[{"header":{"parameterUnit":"m.s-1","parameterCategory":2,"la1":30.2991,"la2":30.254,"lo1":-89.0895,"lo2":-89.0444,"dy":0.0017,"dx":0.0017,"nx":28,"ny":28,"refTime":"2024-11-25T03:00:00:Z","depth":"4","parameterNumber":2,"parameterNumberName":"U-component_of_CURRENTS"},"data":[0,0,0,0,0,0,0,0,0,0,0,0,0,0,0,0,0,0,0,0,0,0,0,0,0,0,0,0,0,0,0,0,0,0,0,0,0,0,0,0,0,0,0,0,0,0,0,0,0,0,0,0,0,0,0,0,0,0,-0.0086,-0.0085,0,-0.0039,-0.0038,-0.0038,-0.003,-0.003,-0.0031,-0.0031,-0.0067,-0.0067,-0.0068,0,0,0,0,0,0,0,0,0,0,0,0,0,-0.0147,-0.0146,-0.0086,-0.0085,-0.0085,-0.0039,-0.0038,-0.0037,-0.003,-0.003,-0.0031,-0.0031,-0.0067,-0.0067,-0.0068,0,0,0,0,0,0,0,0,0,0,0,0,0,-0.0112,-0.0146,-0.0086,-0.0076,-0.0075,-0.0039,-0.0038,-0.0037,-0.003,-0.003,-0.0031,-0.0032,-0.0067,-0.0067,-0.0068,-0.0059,0,0,-0.007,-0.0071,0,0,0,0,0,0,0,0,-0.0114,-0.011,-0.0078,-0.0077,-0.0075,-0.0041,-0.0073,-0.0049,-0.0029,-0.0046,-0.0031,-0.0032,-0.0066,-0.0067,-0.0054,-0.006,-0.0062,-0.007,-0.0071,-0.0071,-0.0072,0,0,0,0,0,0,0,-0.0116,-0.0111,-0.0067,-0.0077,-0.0076,-0.0066,-0.0062,-0.0068,-0.0054,-0.0045,-0.0044,-0.004,-0.0066,-0.0053,-0.0055,-0.0062,-0.007,-0.0071,-0.0072,-0.0072,-0.0102,-0.0102,0,0,0,0,0,0,-0.0124,-0.0114,-0.0068,-0.0065,-0.0097,-0.0065,-0.006,-0.0051,-0.0052,-0.0052,-0.0039,-0.0039,-0.0052,-0.0054,-0.0057,-0.0084,-0.0071,-0.0072,-0.0072,-0.0101,-0.0102,-0.0102,0,0,0,0,0,0,-0.0125,-0.012,-0.007,-0.0089,-0.0083,-0.0063,-0.0053,-0.005,-0.0042,-0.0047,-0.0049,-0.0036,-0.0052,-0.0056,-0.0064,-0.0085,-0.0072,-0.0073,-0.0101,-0.0102,-0.0102,-0.0115,0,0,0,0,0,0,-0.0127,-0.012,-0.0115,-0.009,-0.0082,-0.0059,-0.0052,-0.0048,-0.0039,-0.0039,-0.0045,-0.0048,-0.0053,-0.0063,-0.0065,-0.0085,-0.0074,-0.0101,-0.0101,-0.0102,-0.0114,-0.0116,-0.0118,0,0,0,0,0,-0.0129,-0.0121,-0.0114,-0.0109,-0.0075,-0.0059,-0.0054,-0.0042,-0.0038,-0.0037,-0.0037,-0.0048,-0.0069,-0.0063,-0.0066,-0.0087,-0.01,-0.0101,-0.0102,-0.0114,-0.0116,-0.0118,0,0,0,0,0,0,-0.0147,-0.0118,-0.0111,-0.0095,-0.0083,-0.0058,-0.0051,-0.0043,-0.0038,-0.0043,-0.0045,-0.0048,-0.0069,-0.007,-0.0063,-0.0097,-0.009,-0.0091,-0.0098,-0.01,-0.0102,-0.0085,-0.0074,0,0,0,0,0,-0.0147,-0.0131,-0.011,-0.0098,-0.0092,-0.0071,-0.0062,-0.0057,-0.0049,-0.0047,-0.0052,-0.006,-0.0071,-0.0078,-0.0089,-0.0099,-0.0078,-0.0116,-0.0118,-0.0119,-0.0107,-0.0091,-0.0089,-0.0105,-0.0105,-0.0105,0,0,-0.0151,-0.0133,-0.0124,-0.0101,-0.0087,-0.0079,-0.0067,-0.0059,-0.0059,-0.0054,-0.006,-0.0068,-0.0075,-0.0091,-0.0101,-0.0096,-0.0103,-0.012,-0.0122,-0.0108,-0.0091,-0.009,-0.0088,-0.0105,-0.0105,-0.0105,0,0,-0.0152,-0.0135,-0.0124,-0.0113,-0.0097,-0.0088,-0.0088,-0.0072,-0.0072,-0.0079,-0.0077,-0.0087,-0.0106,-0.0107,-0.0112,-0.0125,-0.0114,-0.0141,-0.0135,-0.0119,-0.0117,-0.0116,-0.008,-0.0075,-0.014,-0.014,-0.014,0,-0.0159,-0.0138,-0.012,-0.0111,-0.0101,-0.0093,-0.0086,-0.0085,-0.0079,-0.0074,-0.009,-0.0096,-0.0112,-0.011,-0.0122,-0.013,-0.0109,-0.0128,-0.012,-0.0118,-0.0116,-0.008,-0.0075,-0.0141,-0.0141,-0.014,-0.014,0,-0.0154,-0.0137,-0.0131,-0.0114,-0.0106,-0.01,-0.0096,-0.0097,-0.0102,-0.0098,-0.0106,-0.0116,-0.0111,-0.0133,-0.0135,-0.013,-0.0115,-0.0126,-0.0113,-0.0115,-0.0078,-0.0071,-0.0142,-0.0141,-0.0141,-0.0141,0,0,-0.0165,-0.0133,-0.0131,-0.0117,-0.0106,-0.0097,-0.0101,-0.009,-0.0081,-0.01,-0.0084,-0.0116,-0.0109,-0.0111,-0.0116,-0.0113,-0.0091,-0.0114,-0.0113,-0.0074,-0.0037,-0.0027,-0.0019,-0.01,-0.01,-0.0099,-0.0014,0,-0.0164,-0.0142,-0.0128,-0.0114,-0.01,-0.0092,-0.0089,-0.0084,-0.0086,-0.0074,-0.0085,-0.0079,-0.0104,-0.0099,-0.01,-0.0093,-0.0076,-0.0111,-0.0044,-0.0042,-0.0029,-0.0012,-0.0096,-0.0009,-0.0008,-0.0007,-0.0006,0,-0.0163,-0.0144,-0.0127,-0.0096,-0.0089,-0.0083,-0.0062,-0.0058,-0.0044,-0.0043,-0.0035,-0.0037,-0.0027,-0.0054,-0.0028,-0.0048,-0.0037,-0.0036,-0.0033,-0.0012,-0.0021,-0.0009,0.0006,0.0005,0.0004,0.0003,0.0003,0,-0.0172,-0.0142,-0.0125,-0.0117,-0.0088,-0.0076,-0.006,-0.0045,-0.0032,-0.0008,0.0007,0.0015,0.0031,0.0032,0.0026,0.0008,0.0056,0.0034,0.0061,0.0063,0.0034,0.0032,0.0065,0.0065,0.0064,0.0064,0.0064,0,-0.0169,-0.0156,-0.0124,-0.0113,-0.009,-0.0068,-0.0041,-0.0027,0.0003,0.0025,0.0034,0.0049,0.0051,0.0069,0.0057,0.0085,0.0089,0.0079,0.0086,0.0027,0.0022,0.004,0.0036,0.0067,0.0067,0.0066,0.0065,0,-0.0179,-0.0159,-0.0139,-0.0104,-0.0091,-0.0074,-0.0029,-0.001,0.0024,0.0057,0.007,0.0094,0.0121,0.0126,0.0143,0.014,0.0151,0.016,0.0121,0.0122,0.0146,0.014,0.0216,0.0217,0.0218,0.0218,0.0219,0,-0.0179,-0.017,-0.0139,-0.0125,-0.0106,-0.0072,-0.0049,-0.0008,0.0016,0.0073,0.0088,0.0134,0.0145,0.0198,0.0185,0.0207,0.0192,0.0221,0.0162,0.0162,0.0162,0.0154,0.0148,0.022,0.0221,0.0221,0.0221,0,-0.0183,-0.0179,-0.0164,-0.0132,-0.0106,-0.0076,-0.0034,-0.0009,0.0042,0.0067,0.0123,0.0153,0.0196,0.0208,0.024,0.0234,0.0211,0.0231,0.0228,0.0172,0.0169,0.0166,0.0158,0.0224,0.0224,0.0224,0.0223,0,-0.0194,-0.019,-0.0169,-0.014,-0.0112,-0.0073,-0.0049,0.0003,0.004,0.011,0.0119,0.0164,0.0191,0.0222,0.023,0.0252,0.0243,0.0241,0.0238,0.0234,0.0196,0.0192,0.0277,0,0,0,0,0,-0.0198,-0.019,-0.017,-0.0135,-0.0108,-0.0082,-0.0037,-0.0011,0.0039,0.0084,0.0112,0.0147,0.0196,0.0207,0.0233,0.0224,0.0231,0.0253,0.0222,0.0242,0.0238,0.0189,0,0,0,0,0,0,-0.02,-0.019,-0.0176,-0.0135,-0.0106,-0.0068,-0.0034,-0.0001,0.0035,0.0081,0.0104,0.0144,0.018,0.0177,0.0227,0.0234,0.0218,0.0277,0.0278,0.0244,0.0241,0.0238,0.0186,0,0,0,0,0]},{"header":{"parameterUnit":"m.s-1","parameterCategory":2,"la1":30.2991,"la2":30.254,"lo1":-89.0895,"lo2":-89.0444,"dy":0.0017,"dx":0.0017,"nx":28,"ny":28,"refTime":"2024-11-25T03:00:00:Z","depth":"4","parameterNumber":3,"parameterNumberName":"V-component_of_CURRENTS"},"data":[0,0,0,0,0,0,0,0,0,0,0,0,0,0,0,0,0,0,0,0,0,0,0,0,0,0,0,0,0,0,0,0,0,0,0,0,0,0,0,0,0,0,0,0,0,0,0,0,0,0,0,0,0,0,0,0,0,0,0.0276,0.0276,0,0.0264,0.0263,0.0263,0.0238,0.0237,0.0237,0.0237,0.0188,0.0187,0.0187,0,0,0,0,0,0,0,0,0,0,0,0,0,0.0247,0.0248,0.0276,0.0276,0.0276,0.0264,0.0263,0.0263,0.0238,0.0237,0.0237,0.0236,0.0189,0.0188,0.0187,0,0,0,0,0,0,0,0,0,0,0,0,0,0.0249,0.0248,0.0276,0.0262,0.0261,0.0264,0.0263,0.0263,0.0238,0.0237,0.0237,0.0236,0.0189,0.0188,0.0186,0.0192,0,0,0.0182,0.0182,0,0,0,0,0,0,0,0,0.0249,0.025,0.0264,0.0263,0.0262,0.0252,0.0236,0.0238,0.0238,0.0246,0.0237,0.0236,0.0207,0.0204,0.0203,0.0189,0.0187,0.0182,0.0181,0.0181,0.0181,0,0,0,0,0,0,0,0.0249,0.0251,0.027,0.0264,0.0263,0.0246,0.0246,0.0236,0.0229,0.0245,0.0244,0.0244,0.0206,0.0205,0.0202,0.0187,0.0182,0.0181,0.018,0.018,0.0061,0.0059,0,0,0,0,0,0,0.0255,0.0251,0.0271,0.027,0.0255,0.0248,0.0247,0.0255,0.023,0.0226,0.0244,0.0242,0.0207,0.0203,0.02,0.0128,0.0181,0.018,0.0179,0.0064,0.0061,0.0058,0,0,0,0,0,0,0.0254,0.0257,0.0271,0.026,0.0261,0.0249,0.0258,0.0255,0.0229,0.023,0.0225,0.0218,0.0206,0.0202,0.0161,0.0129,0.0179,0.0178,0.0067,0.0063,0.006,0.0033,0,0,0,0,0,0,0.0254,0.0257,0.0266,0.0261,0.0262,0.0253,0.0259,0.0256,0.0232,0.0229,0.0206,0.0202,0.0206,0.0163,0.0159,0.0128,0.0177,0.007,0.0065,0.0061,0.0037,0.0029,0.0022,0,0,0,0,0,0.0253,0.0266,0.0266,0.0269,0.0274,0.0252,0.025,0.024,0.0231,0.0214,0.0193,0.0202,0.0132,0.016,0.0157,0.0124,0.0072,0.0066,0.0061,0.004,0.003,0.0022,0,0,0,0,0,0,0.0261,0.0265,0.0265,0.028,0.0258,0.0248,0.0243,0.0225,0.0196,0.0187,0.0183,0.0178,0.0125,0.0123,0.0154,0.0071,0.0098,0.0092,0.0083,0.0074,0.0067,0.0108,0.0176,0,0,0,0,0,0.0268,0.0276,0.0266,0.0274,0.0267,0.0248,0.0239,0.0218,0.0196,0.0182,0.0155,0.0127,0.0105,0.0089,0.0064,0.0029,0.0044,-0.0001,-0.0009,-0.0014,0.0013,-0.0004,-0.0009,0.0041,0.0041,0.0041,0,0,0.0275,0.0277,0.0283,0.0275,0.0265,0.0254,0.024,0.0211,0.0191,0.0181,0.0134,0.01,0.0087,0.0042,0.0018,0.0036,-0.0028,-0.0021,-0.0026,0.0006,-0.001,-0.0014,-0.0018,0.0037,0.0038,0.0039,0,0,0.028,0.0291,0.0292,0.0279,0.0252,0.0242,0.0225,0.0184,0.0156,0.0102,0.009,0.0046,-0.0009,-0.0012,-0.0018,-0.0079,-0.0069,-0.0117,-0.0111,-0.0129,-0.0132,-0.0134,-0.0137,-0.0139,-0.0116,-0.0116,-0.0116,0,0.0287,0.029,0.0284,0.0276,0.0271,0.0234,0.0221,0.0195,0.0134,0.011,0.0075,-0.0003,-0.0022,-0.0037,-0.0067,-0.009,-0.01,-0.0071,-0.0134,-0.0136,-0.0138,-0.014,-0.0142,-0.0118,-0.0118,-0.0118,-0.0117,0,0.0279,0.0287,0.0285,0.0274,0.0263,0.0241,0.0211,0.0169,0.0117,0.0081,0.0012,-0.0026,-0.0064,-0.0098,-0.0098,-0.0129,-0.0133,-0.0142,-0.0099,-0.0143,-0.0144,-0.0146,-0.0121,-0.012,-0.0119,-0.0119,0,0,0.0276,0.0281,0.0279,0.0277,0.0257,0.0241,0.0216,0.0177,0.0147,0.0066,0.0026,-0.0031,-0.0069,-0.0077,-0.0102,-0.012,-0.0154,-0.0141,-0.0141,-0.012,-0.0194,-0.0196,-0.0198,-0.0185,-0.0185,-0.0185,-0.0194,0,0.0266,0.0262,0.0267,0.0259,0.0253,0.0236,0.0218,0.0177,0.0119,0.0063,0.002,-0.0035,-0.0054,-0.0092,-0.011,-0.0149,-0.0158,-0.015,-0.0173,-0.0172,-0.015,-0.0199,-0.0186,-0.0195,-0.0195,-0.0195,-0.0195,0,0.0241,0.0247,0.0244,0.0249,0.0245,0.0238,0.0203,0.0178,0.012,0.0069,0.0023,-0.0026,-0.0056,-0.0082,-0.0125,-0.0129,-0.0152,-0.0177,-0.0178,-0.016,-0.0177,-0.0141,-0.0197,-0.0197,-0.0197,-0.0197,-0.0197,0,0.0214,0.0226,0.0226,0.0227,0.0227,0.0222,0.0215,0.017,0.014,0.0078,0.0036,-0.0011,-0.0049,-0.0084,-0.0137,-0.0143,-0.0188,-0.02,-0.021,-0.0211,-0.0188,-0.0185,-0.0212,-0.0212,-0.0212,-0.0212,-0.0212,0,0.0191,0.0189,0.0216,0.0212,0.0205,0.0211,0.0184,0.0162,0.0125,0.0088,0.0043,0.0003,-0.0058,-0.0099,-0.0134,-0.0177,-0.0182,-0.0201,-0.0214,-0.0205,-0.0204,-0.0189,-0.0186,-0.0213,-0.0212,-0.0212,-0.0212,0,0.015,0.0169,0.017,0.0186,0.0191,0.0182,0.0182,0.0154,0.0128,0.0083,0.0065,0.0006,-0.0047,-0.0093,-0.0154,-0.0174,-0.0214,-0.022,-0.0195,-0.0208,-0.0221,-0.022,-0.0233,-0.0233,-0.0233,-0.0233,-0.0233,0,0.0126,0.0125,0.0149,0.0154,0.0163,0.0161,0.0153,0.0145,0.0122,0.0082,0.0057,0.0005,-0.0038,-0.0109,-0.0158,-0.0208,-0.0213,-0.0226,-0.0227,-0.0212,-0.0224,-0.0223,-0.0221,-0.0234,-0.0234,-0.0234,-0.0234,0,0.0084,0.0096,0.0103,0.0118,0.0123,0.0124,0.0122,0.0112,0.0096,0.0079,0.0042,-0.0001,-0.0053,-0.011,-0.0147,-0.0184,-0.0221,-0.0227,-0.0227,-0.0228,-0.0214,-0.0225,-0.0223,-0.0234,-0.0234,-0.0234,-0.0234,0,0.0053,0.0053,0.0071,0.0084,0.0091,0.0092,0.0095,0.0088,0.0076,0.0051,0.0039,-0.001,-0.004,-0.0098,-0.0137,-0.0173,-0.0181,-0.019,-0.0192,-0.0191,-0.0181,-0.0157,-0.0167,0,0,0,0,0,0.0023,0.0028,0.0037,0.0055,0.0064,0.0073,0.0074,0.0078,0.0076,0.0052,0.0051,0.0006,-0.0055,-0.0086,-0.012,-0.0146,-0.0192,-0.0188,-0.0205,-0.0238,-0.0237,-0.0233,0,0,0,0,0,0,0.0003,0.0009,0.0028,0.0033,0.0043,0.0049,0.0055,0.0055,0.0048,0.0045,0.0015,-0.0,-0.0058,-0.0031,-0.0119,-0.0132,-0.0147,-0.0216,-0.0217,-0.0238,-0.0237,-0.0237,-0.0233,0,0,0,0,0]}]]